Location: Newark
(47.4000°N, 7.5833°E)
Time: 16:59:55
(UTC+00:00)

N. Korean satellite - Pass Details

Date: 05 February 2020
Orbit: 456 x 506 km, 97.2° (Epoch: 17 February)

Event Time Altitude Azimuth Distance (km) Brightness Sun altitude
Rises 04:08:33 0° 33° (NNE) 2,582 10.8 -27.8°
Reaches altitude 10° 04:11:48 10° 65° (ENE) 1,703 10.2 -27.2°
Maximum altitude 04:13:18 12° 89° (E) 1,576 10.1 -27.0°
Drops below altitude 10° 04:14:48 10° 114° (ESE) 1,706 10.1 -26.7°
Sets 04:18:03 0° 146° (SE) 2,590 10.6 -26.2°
